| time (UTC) | temp F | wind direction | speed MPH | gust MPH | rain 1hr in | rain 24hr in | rain mn in | humidity % | barometer mb |
| 20260505021513 | 63 | 121 | 6.0 | 12.0 | 0.00 | 0.00 | 0.00 | 49 | 1008.8 |
| 20260505020012 | 63 | 188 | 6.0 | 13.0 | 0.00 | 0.00 | 0.00 | 48 | 1008.6 |
| 20260505014520 | 63 | 146 | 5.0 | 11.0 | 0.00 | 0.00 | 0.00 | 48 | 1008.5 |
| 20260505013010 | 63 | 144 | 5.0 | 14.0 | 0.00 | 0.00 | 0.00 | 47 | 1008.6 |
| 20260505011510 | 64 | 151 | 5.0 | 8.0 | 0.00 | 0.00 | 0.00 | 47 | 1008.4 |
| 20260505010009 | 63 | 130 | 4.0 | 9.0 | 0.00 | 0.00 | 0.00 | 47 | 1008.2 |
| 20260505004509 | 64 | 157 | 4.0 | 10.0 | 0.00 | 0.00 | 0.00 | 47 | 1008.4 |
| 20260505003008 | 64 | 163 | 5.0 | 10.0 | 0.00 | 0.00 | 0.00 | 46 | 1008.3 |
| 20260505001508 | 65 | 139 | 5.0 | 11.0 | 0.00 | 0.00 | 0.00 | 45 | 1008.0 |
| 20260505000010 | 65 | 110 | 4.0 | 9.0 | 0.00 | 0.00 | 0.00 | 44 | 1008.0 |
| 20260504234506 | 66 | 148 | 5.0 | 10.0 | 0.00 | 0.00 | 0.00 | 43 | 1008.1 |
| 20260504233006 | 66 | 185 | 4.0 | 13.0 | 0.00 | 0.00 | 0.00 | 43 | 1007.8 |
| 20260504231505 | 67 | 150 | 6.0 | 14.0 | 0.00 | 0.00 | 0.00 | 41 | 1007.9 |
| 20260504230004 | 68 | 159 | 3.0 | 8.0 | 0.00 | 0.00 | 0.00 | 40 | 1007.9 |
| 20260504224510 | 68 | 147 | 4.0 | 9.0 | 0.00 | 0.00 | 0.00 | 40 | 1007.8 |
| 20260504223003 | 68 | 183 | 4.0 | 10.0 | 0.00 | 0.00 | 0.00 | 39 | 1007.9 |
| 20260504221502 | 68 | 145 | 4.0 | 11.0 | 0.00 | 0.00 | 0.00 | 39 | 1008.0 |
| 20260504220003 | 69 | 169 | 4.0 | 9.0 | 0.00 | 0.00 | 0.00 | 37 | 1007.9 |
| 20260504214600 | 69 | 156 | 5.0 | 9.0 | 0.00 | 0.00 | 0.00 | 38 | 1008.0 |
| 20260504213109 | 70 | 233 | 3.0 | 8.0 | 0.00 | 0.00 | 0.00 | 34 | 1008.0 |
| 20260504211651 | 69 | 153 | 3.0 | 11.0 | 0.00 | 0.00 | 0.00 | 37 | 1008.0 |
| 20260504210056 | 69 | 152 | 4.0 | 9.0 | 0.00 | 0.00 | 0.00 | 37 | 1008.2 |
| 20260504204601 | 69 | 167 | 5.0 | 9.0 | 0.00 | 0.00 | 0.00 | 37 | 1008.5 |
| 20260504203057 | 70 | 105 | 4.0 | 9.0 | 0.00 | 0.00 | 0.00 | 37 | 1008.5 |
| 20260504201557 | 70 | 190 | 4.0 | 9.0 | 0.00 | 0.00 | 0.00 | 35 | 1008.9 |
| 20260504200052 | 70 | 203 | 2.0 | 8.0 | 0.00 | 0.00 | 0.00 | 38 | 1009.1 |
| 20260504194554 | 69 | 231 | 4.0 | 11.0 | 0.00 | 0.00 | 0.00 | 37 | 1009.1 |
| 20260504193047 | 69 | 171 | 4.0 | 8.0 | 0.00 | 0.00 | 0.00 | 37 | 1009.3 |
| 20260504191606 | 67 | 162 | 4.0 | 10.0 | 0.00 | 0.00 | 0.00 | 41 | 1009.5 |
| 20260504190052 | 68 | 206 | 2.0 | 9.0 | 0.00 | 0.00 | 0.00 | 38 | 1009.5 |
| 20260504184549 | 69 | 163 | 4.0 | 7.0 | 0.00 | 0.00 | 0.00 | 40 | 1009.8 |
| 20260504183041 | 68 | 147 | 5.0 | 8.0 | 0.00 | 0.00 | 0.00 | 38 | 1009.9 |
| 20260504181540 | 68 | 139 | 6.0 | 11.0 | 0.00 | 0.00 | 0.00 | 40 | 1009.7 |
| 20260504180038 | 66 | 148 | 7.0 | 12.0 | 0.00 | 0.00 | 0.00 | 40 | 1009.9 |
| 20260504174540 | 65 | 168 | 3.0 | 11.0 | 0.00 | 0.00 | 0.00 | 42 | 1010.3 |
| 20260504173036 | 66 | 153 | 4.0 | 13.0 | 0.00 | 0.00 | 0.00 | 40 | 1010.2 |
| 20260504171537 | 66 | 139 | 4.0 | 9.0 | 0.00 | 0.00 | 0.00 | 40 | 1010.5 |
| 20260504081523 | 46 | 160 | 6.0 | 9.0 | 0.00 | 0.00 | 0.00 | 57 | 1013.7 |
| 20260504080120 | 46 | 165 | 5.0 | 7.0 | 0.00 | 0.00 | 0.00 | 56 | 1013.7 |
| 20260504044600 | 48 | 157 | 4.0 | 7.0 | 0.00 | 0.00 | 0.00 | 52 | 1014.0 |
| 20260504043059 | 48 | 164 | 3.0 | 5.0 | 0.00 | 0.00 | 0.00 | 52 | 1014.0 |
| 20260504041551 | 48 | 168 | 2.0 | 4.0 | 0.00 | 0.00 | 0.00 | 52 | 1014.0 |
| 20260504040111 | 49 | 171 | 4.0 | 6.0 | 0.00 | 0.00 | 0.00 | 50 | 1014.1 |
| 20260504034547 | 49 | 190 | 2.0 | 3.0 | 0.00 | 0.00 | 0.00 | 50 | 1014.1 |
| 20260504033049 | 49 | 190 | 1.0 | 3.0 | 0.00 | 0.00 | 0.00 | 50 | 1014.1 |
| 20260504031555 | 49 | 190 | 2.0 | 3.0 | 0.00 | 0.00 | 0.00 | 51 | 1014.2 |
| 20260504030046 | 49 | 200 | 2.0 | 3.0 | 0.00 | 0.00 | 0.00 | 50 | 1014.2 |
| 20260504024545 | 50 | 254 | 1.0 | 2.0 | 0.00 | 0.00 | 0.00 | 49 | 1014.2 |
| 20260504023045 | 50 | 254 | 0.0 | 0.0 | 0.00 | 0.00 | 0.00 | 49 | 1014.6 |